Year,Month,Day,Hour,Minute,Value (Times are PST for temperature in C)
2010,07,07,00,00,17.80
2010,07,07,00,01,17.80
2010,07,07,00,02,17.80
2010,07,07,00,03,17.80
2010,07,07,00,04,17.80
2010,07,07,00,05,17.80
2010,07,07,00,06,17.80
2010,07,07,00,07,17.90
2010,07,07,00,08,17.90
2010,07,07,00,09,17.90
2010,07,07,00,10,17.90
2010,07,07,00,11,17.90
2010,07,07,00,12,17.80
2010,07,07,00,13,17.80
2010,07,07,00,14,17.80
2010,07,07,00,15,17.80
2010,07,07,00,16,17.80
2010,07,07,00,17,17.80
2010,07,07,00,18,17.80
2010,07,07,00,19,17.80
2010,07,07,00,20,17.80
2010,07,07,00,21,17.80
2010,07,07,00,22,17.80
2010,07,07,00,23,17.90
2010,07,07,00,24,17.90
2010,07,07,00,25,17.90
2010,07,07,00,26,17.90
2010,07,07,00,27,17.90
2010,07,07,00,28,17.90
2010,07,07,00,29,17.90
2010,07,07,00,30,17.90
2010,07,07,00,31,17.90
2010,07,07,00,32,17.90
2010,07,07,00,33,17.90
2010,07,07,00,34,17.90
2010,07,07,00,35,17.90
2010,07,07,00,36,17.90
2010,07,07,00,37,17.80
2010,07,07,00,38,17.80
2010,07,07,00,39,17.80
2010,07,07,00,40,17.80
2010,07,07,00,41,17.80
2010,07,07,00,42,17.80
2010,07,07,00,43,17.80
2010,07,07,00,44,17.90
2010,07,07,00,45,17.90
2010,07,07,00,46,17.90
2010,07,07,00,47,17.90
2010,07,07,00,48,17.90
2010,07,07,00,49,17.90
2010,07,07,00,50,17.90
2010,07,07,00,51,17.90
2010,07,07,00,52,17.90
2010,07,07,00,53,17.90
2010,07,07,00,54,17.90
2010,07,07,00,55,18.00
2010,07,07,00,56,18.00
2010,07,07,00,57,18.00
2010,07,07,00,58,18.00
2010,07,07,00,59,18.00
2010,07,07,01,00,18.00
2010,07,07,01,01,18.00
2010,07,07,01,02,18.00
2010,07,07,01,03,17.90
2010,07,07,01,04,17.90
2010,07,07,01,05,17.90
2010,07,07,01,06,17.90
2010,07,07,01,07,17.90
2010,07,07,01,08,17.80
2010,07,07,01,09,17.80
2010,07,07,01,10,17.90
2010,07,07,01,11,17.90
2010,07,07,01,12,18.00
2010,07,07,01,13,18.00
2010,07,07,01,14,18.00
2010,07,07,01,15,18.10
2010,07,07,01,16,18.10
2010,07,07,01,17,18.10
2010,07,07,01,18,18.10
2010,07,07,01,19,18.10
2010,07,07,01,20,18.20
2010,07,07,01,21,18.20
2010,07,07,01,22,18.20
2010,07,07,01,23,18.30
2010,07,07,01,24,18.30
2010,07,07,01,25,18.30
2010,07,07,01,26,18.40
2010,07,07,01,27,18.40
2010,07,07,01,28,18.50
2010,07,07,01,29,18.60
2010,07,07,01,30,18.60
2010,07,07,01,31,18.70
2010,07,07,01,32,18.70
2010,07,07,01,33,18.70
2010,07,07,01,34,18.70
2010,07,07,01,35,18.80
2010,07,07,01,36,18.80
2010,07,07,01,37,18.80
2010,07,07,01,38,18.80
2010,07,07,01,39,18.80
2010,07,07,01,40,18.90
2010,07,07,01,41,18.90
2010,07,07,01,42,18.90
2010,07,07,01,43,19.00
2010,07,07,01,44,19.00
2010,07,07,01,45,19.10
2010,07,07,01,46,19.10
2010,07,07,01,47,19.10
2010,07,07,01,48,19.10
2010,07,07,01,49,19.10
2010,07,07,01,50,19.10
2010,07,07,01,51,19.10
2010,07,07,01,52,19.10
2010,07,07,01,53,19.10
2010,07,07,01,54,19.10
2010,07,07,01,55,19.10
2010,07,07,01,56,19.10
2010,07,07,01,57,19.00
2010,07,07,01,58,19.00
2010,07,07,01,59,19.00
2010,07,07,02,00,19.00
2010,07,07,02,01,19.00
2010,07,07,02,02,19.00
2010,07,07,02,03,18.90
2010,07,07,02,04,18.90
2010,07,07,02,05,18.90
2010,07,07,02,06,18.90
2010,07,07,02,07,18.90
2010,07,07,02,08,18.90
2010,07,07,02,09,18.90
2010,07,07,02,10,18.80
2010,07,07,02,11,18.80
2010,07,07,02,12,18.80
2010,07,07,02,13,18.80
2010,07,07,02,14,18.80
2010,07,07,02,15,18.70
2010,07,07,02,16,18.70
2010,07,07,02,17,18.70
2010,07,07,02,18,18.70
2010,07,07,02,19,18.60
2010,07,07,02,20,18.60
2010,07,07,02,21,18.50
2010,07,07,02,22,18.50
2010,07,07,02,23,18.40
2010,07,07,02,24,18.40
2010,07,07,02,25,18.30
2010,07,07,02,26,18.30
2010,07,07,02,27,18.30
2010,07,07,02,28,18.20
2010,07,07,02,29,18.20
2010,07,07,02,30,18.20
2010,07,07,02,31,18.20
2010,07,07,02,32,18.20
2010,07,07,02,33,18.20
2010,07,07,02,34,18.10
2010,07,07,02,35,18.10
2010,07,07,02,36,18.10
2010,07,07,02,37,18.00
2010,07,07,02,38,18.00
2010,07,07,02,39,18.00
2010,07,07,02,40,18.00
2010,07,07,02,41,18.00
2010,07,07,02,42,18.00
2010,07,07,02,43,18.00
2010,07,07,02,44,18.00
2010,07,07,02,45,17.90
2010,07,07,02,46,17.90
2010,07,07,02,47,17.90
2010,07,07,02,48,17.90
2010,07,07,02,49,17.90
2010,07,07,02,50,17.80
2010,07,07,02,51,17.80
2010,07,07,02,52,17.80
2010,07,07,02,53,17.80
2010,07,07,02,54,17.80
2010,07,07,02,55,17.80
2010,07,07,02,56,17.80
2010,07,07,02,57,17.80
2010,07,07,02,58,17.80
2010,07,07,02,59,17.70
2010,07,07,03,00,17.70
2010,07,07,03,01,17.70
2010,07,07,03,02,17.70
2010,07,07,03,03,17.70
2010,07,07,03,04,17.70
2010,07,07,03,05,17.60
2010,07,07,03,06,17.60
2010,07,07,03,07,17.60
2010,07,07,03,08,17.60
2010,07,07,03,09,17.60
2010,07,07,03,10,17.60
2010,07,07,03,11,17.60
2010,07,07,03,12,17.60
2010,07,07,03,13,17.60
2010,07,07,03,14,17.60
2010,07,07,03,15,17.60
2010,07,07,03,16,17.60
2010,07,07,03,17,17.50
2010,07,07,03,18,17.50
2010,07,07,03,19,17.50
2010,07,07,03,20,17.50
2010,07,07,03,21,17.50
2010,07,07,03,22,17.50
2010,07,07,03,23,17.50
2010,07,07,03,24,17.50
2010,07,07,03,25,17.60
2010,07,07,03,26,17.60
2010,07,07,03,27,17.60
2010,07,07,03,28,17.60
2010,07,07,03,29,17.60
2010,07,07,03,30,17.60
2010,07,07,03,31,17.60
2010,07,07,03,32,17.70
2010,07,07,03,33,17.70
2010,07,07,03,34,17.70
2010,07,07,03,35,17.70
2010,07,07,03,36,17.70
2010,07,07,03,37,17.60
2010,07,07,03,38,17.60
2010,07,07,03,39,17.60
2010,07,07,03,40,17.60
2010,07,07,03,41,17.60
2010,07,07,03,42,17.60
2010,07,07,03,43,17.60
2010,07,07,03,44,17.60
2010,07,07,03,45,17.60
2010,07,07,03,46,17.60
2010,07,07,03,47,17.60
2010,07,07,03,48,17.60
2010,07,07,03,49,17.70
2010,07,07,03,50,17.70
2010,07,07,03,51,17.70
2010,07,07,03,52,17.70
2010,07,07,03,53,17.70
2010,07,07,03,54,17.70
2010,07,07,03,55,17.60
2010,07,07,03,56,17.60
2010,07,07,03,57,17.70
2010,07,07,03,58,17.60
2010,07,07,03,59,17.60
2010,07,07,04,00,17.60
2010,07,07,04,01,17.60
2010,07,07,04,02,17.60
2010,07,07,04,03,17.60
2010,07,07,04,04,17.60
2010,07,07,04,05,17.60
2010,07,07,04,06,17.60
2010,07,07,04,07,17.60
2010,07,07,04,08,17.60
2010,07,07,04,09,17.50
2010,07,07,04,10,17.60
2010,07,07,04,11,17.60
2010,07,07,04,12,17.60
2010,07,07,04,13,17.60
2010,07,07,04,14,17.50
2010,07,07,04,15,17.50
2010,07,07,04,16,17.50
2010,07,07,04,17,17.50
2010,07,07,04,18,17.50
2010,07,07,04,19,17.50
2010,07,07,04,20,17.50
2010,07,07,04,21,17.50
2010,07,07,04,22,17.50
2010,07,07,04,23,17.50
2010,07,07,04,24,17.40
2010,07,07,04,25,17.40
2010,07,07,04,26,17.40
2010,07,07,04,27,17.40
2010,07,07,04,28,17.40
2010,07,07,04,29,17.40
2010,07,07,04,30,17.40
2010,07,07,04,31,17.40
2010,07,07,04,32,17.40
2010,07,07,04,33,17.40
2010,07,07,04,34,17.40
2010,07,07,04,35,17.40
2010,07,07,04,36,17.40
2010,07,07,04,37,17.40
2010,07,07,04,38,17.40
2010,07,07,04,39,17.40
2010,07,07,04,40,17.40
2010,07,07,04,41,17.40
2010,07,07,04,42,17.50
2010,07,07,04,43,17.50
2010,07,07,04,44,17.50
2010,07,07,04,45,17.50
2010,07,07,04,46,17.50
2010,07,07,04,47,17.50
2010,07,07,04,48,17.50
2010,07,07,04,49,17.50
2010,07,07,04,50,17.50
2010,07,07,04,51,17.50
2010,07,07,04,52,17.40
2010,07,07,04,53,17.40
2010,07,07,04,54,17.40
2010,07,07,04,55,17.40
2010,07,07,04,56,17.40
2010,07,07,04,57,17.40
2010,07,07,04,58,17.40
2010,07,07,04,59,17.40
2010,07,07,05,00,17.40
2010,07,07,05,01,17.40
2010,07,07,05,02,17.40
2010,07,07,05,03,17.40
2010,07,07,05,04,17.40
2010,07,07,05,05,17.40
2010,07,07,05,06,17.40
2010,07,07,05,07,17.40
2010,07,07,05,08,17.40
2010,07,07,05,09,17.40
2010,07,07,05,10,17.40
2010,07,07,05,11,17.50
2010,07,07,05,12,17.50
2010,07,07,05,13,17.50
2010,07,07,05,14,17.50
2010,07,07,05,15,17.50
2010,07,07,05,16,17.50
2010,07,07,05,17,17.50
2010,07,07,05,18,17.50
2010,07,07,05,19,17.40
2010,07,07,05,20,17.40
2010,07,07,05,21,17.40
2010,07,07,05,22,17.40
2010,07,07,05,23,17.40
2010,07,07,05,24,17.40
2010,07,07,05,25,17.40
2010,07,07,05,26,17.40
2010,07,07,05,27,17.40
2010,07,07,05,28,17.40
2010,07,07,05,29,17.40
2010,07,07,05,30,17.40
2010,07,07,05,31,17.40
2010,07,07,05,32,17.40
2010,07,07,05,33,17.40
2010,07,07,05,34,17.40
2010,07,07,05,35,17.40
2010,07,07,05,36,17.40
2010,07,07,05,37,17.40
2010,07,07,05,38,17.40
2010,07,07,05,39,17.40
2010,07,07,05,40,17.40
2010,07,07,05,41,17.40
2010,07,07,05,42,17.40
2010,07,07,05,43,17.40
2010,07,07,05,44,17.40
2010,07,07,05,45,17.40
2010,07,07,05,46,17.40
2010,07,07,05,47,17.50
2010,07,07,05,48,17.40
2010,07,07,05,49,17.40
2010,07,07,05,50,17.50
2010,07,07,05,51,17.50
2010,07,07,05,52,17.50
2010,07,07,05,53,17.50
2010,07,07,05,54,17.60
2010,07,07,05,55,17.60
2010,07,07,05,56,17.60
2010,07,07,05,57,17.60
2010,07,07,05,58,17.60
2010,07,07,05,59,17.60
2010,07,07,06,00,17.60
2010,07,07,06,01,17.60
2010,07,07,06,02,17.60
2010,07,07,06,03,17.60
2010,07,07,06,04,17.60
2010,07,07,06,05,17.60
2010,07,07,06,06,17.70
2010,07,07,06,07,17.70
2010,07,07,06,08,17.70
2010,07,07,06,09,17.70
2010,07,07,06,10,17.70
2010,07,07,06,11,17.70
2010,07,07,06,12,17.70
2010,07,07,06,13,17.70
2010,07,07,06,14,17.70
2010,07,07,06,15,17.70
2010,07,07,06,16,17.70
2010,07,07,06,17,17.70
2010,07,07,06,18,17.70
2010,07,07,06,19,17.70
2010,07,07,06,20,17.70
2010,07,07,06,21,17.70
2010,07,07,06,22,17.70
2010,07,07,06,23,17.70
2010,07,07,06,24,17.60
2010,07,07,06,25,17.60
2010,07,07,06,26,17.60
2010,07,07,06,27,17.60
2010,07,07,06,28,17.60
2010,07,07,06,29,17.60
2010,07,07,06,30,17.60
2010,07,07,06,31,17.60
2010,07,07,06,32,17.60
2010,07,07,06,33,17.60
2010,07,07,06,34,17.60
2010,07,07,06,35,17.70
2010,07,07,06,36,17.60
2010,07,07,06,37,17.60
2010,07,07,06,38,17.70
2010,07,07,06,39,17.70
2010,07,07,06,40,17.70
2010,07,07,06,41,17.70
2010,07,07,06,42,17.70
2010,07,07,06,43,17.70
2010,07,07,06,44,17.70
2010,07,07,06,45,17.70
2010,07,07,06,46,17.70
2010,07,07,06,47,17.70
2010,07,07,06,48,17.70
2010,07,07,06,49,17.70
2010,07,07,06,50,17.70
2010,07,07,06,51,17.70
2010,07,07,06,52,17.80
2010,07,07,06,53,17.80
2010,07,07,06,54,17.80
2010,07,07,06,55,17.80
2010,07,07,06,56,17.80
2010,07,07,06,57,17.90
2010,07,07,06,58,17.90
2010,07,07,06,59,17.90
2010,07,07,07,00,17.90
2010,07,07,07,01,17.90
2010,07,07,07,02,17.90
2010,07,07,07,03,18.00
2010,07,07,07,04,18.00
2010,07,07,07,05,18.00
2010,07,07,07,06,18.10
2010,07,07,07,07,18.10
2010,07,07,07,08,18.10
2010,07,07,07,09,18.10
2010,07,07,07,10,18.10
2010,07,07,07,11,18.10
2010,07,07,07,12,18.10
2010,07,07,07,13,18.10
2010,07,07,07,14,18.20
2010,07,07,07,15,18.20
2010,07,07,07,16,18.20
2010,07,07,07,17,18.20
2010,07,07,07,18,18.20
2010,07,07,07,19,18.20
2010,07,07,07,20,18.20
2010,07,07,07,21,18.20
2010,07,07,07,22,18.20
2010,07,07,07,23,18.20
2010,07,07,07,24,18.20
2010,07,07,07,25,18.30
2010,07,07,07,26,18.30
2010,07,07,07,27,18.30
2010,07,07,07,28,18.30
2010,07,07,07,29,18.40
2010,07,07,07,30,18.40
2010,07,07,07,31,18.40
2010,07,07,07,32,18.40
2010,07,07,07,33,18.50
2010,07,07,07,34,18.50
2010,07,07,07,35,18.60
2010,07,07,07,36,18.60
2010,07,07,07,37,18.60
2010,07,07,07,38,18.60
2010,07,07,07,39,18.60
2010,07,07,07,40,18.70
2010,07,07,07,41,18.70
2010,07,07,07,42,18.70
2010,07,07,07,43,18.70
2010,07,07,07,44,18.70
2010,07,07,07,45,18.70
2010,07,07,07,46,18.70
2010,07,07,07,47,18.80
2010,07,07,07,48,18.80
2010,07,07,07,49,18.80
2010,07,07,07,50,18.90
2010,07,07,07,51,18.90
2010,07,07,07,52,18.90
2010,07,07,07,53,19.00
2010,07,07,07,54,19.00
2010,07,07,07,55,19.10
2010,07,07,07,56,19.10
2010,07,07,07,57,19.10
2010,07,07,07,58,19.20
2010,07,07,07,59,19.20
2010,07,07,08,00,19.20
2010,07,07,08,01,19.20
2010,07,07,08,02,19.20
2010,07,07,08,03,19.30
2010,07,07,08,04,19.30
2010,07,07,08,05,19.30
2010,07,07,08,06,19.30
2010,07,07,08,07,19.40
2010,07,07,08,08,19.40
2010,07,07,08,09,19.40
2010,07,07,08,10,19.40
2010,07,07,08,11,19.40
2010,07,07,08,12,19.30
2010,07,07,08,13,19.30
2010,07,07,08,14,19.40
2010,07,07,08,15,19.40
2010,07,07,08,16,19.40
2010,07,07,08,17,19.40
2010,07,07,08,18,19.40
2010,07,07,08,19,19.40
2010,07,07,08,20,19.40
2010,07,07,08,21,19.40
2010,07,07,08,22,19.40
2010,07,07,08,23,19.40
2010,07,07,08,24,19.40
2010,07,07,08,25,19.40
2010,07,07,08,26,19.40
2010,07,07,08,27,19.40
2010,07,07,08,28,19.40
2010,07,07,08,29,19.40
2010,07,07,08,30,19.40
2010,07,07,08,31,19.40
2010,07,07,08,32,19.40
2010,07,07,08,33,19.50
2010,07,07,08,34,19.50
2010,07,07,08,35,19.50
2010,07,07,08,36,19.60
2010,07,07,08,37,19.60
2010,07,07,08,38,19.60
2010,07,07,08,39,19.60
2010,07,07,08,40,19.60
2010,07,07,08,41,19.60
2010,07,07,08,42,19.60
2010,07,07,08,43,19.70
2010,07,07,08,44,19.70
2010,07,07,08,45,19.70
2010,07,07,08,46,19.80
2010,07,07,08,47,19.90
2010,07,07,08,48,20.00
2010,07,07,08,49,20.00
2010,07,07,08,50,20.10
2010,07,07,08,51,20.10
2010,07,07,08,52,20.20
2010,07,07,08,53,20.20
2010,07,07,08,54,20.20
2010,07,07,08,55,20.20
2010,07,07,08,56,20.20
2010,07,07,08,57,20.30
2010,07,07,08,58,20.30
2010,07,07,08,59,20.30
2010,07,07,09,00,20.30
2010,07,07,09,01,20.30
2010,07,07,09,02,20.30
2010,07,07,09,03,20.30
2010,07,07,09,04,20.40
2010,07,07,09,05,20.50
2010,07,07,09,06,20.50
2010,07,07,09,07,20.50
2010,07,07,09,08,20.50
2010,07,07,09,09,20.40
2010,07,07,09,10,20.40
2010,07,07,09,11,20.30
2010,07,07,09,12,20.20
2010,07,07,09,13,20.20
2010,07,07,09,14,20.20
2010,07,07,09,15,20.10
2010,07,07,09,16,20.10
2010,07,07,09,17,20.00
2010,07,07,09,18,20.00
2010,07,07,09,19,20.00
2010,07,07,09,20,20.00
2010,07,07,09,21,20.10
2010,07,07,09,22,20.10
2010,07,07,09,23,20.10
2010,07,07,09,24,20.20
2010,07,07,09,25,20.20
2010,07,07,09,26,20.30
2010,07,07,09,27,20.30
2010,07,07,09,28,20.30
2010,07,07,09,29,20.40
2010,07,07,09,30,20.40
2010,07,07,09,31,20.50
2010,07,07,09,32,20.60
2010,07,07,09,33,20.70
2010,07,07,09,34,20.70
2010,07,07,09,35,20.80
2010,07,07,09,36,20.90
2010,07,07,09,37,20.90
2010,07,07,09,38,20.90
2010,07,07,09,39,21.00
2010,07,07,09,40,21.10
2010,07,07,09,41,21.20
2010,07,07,09,42,21.20
2010,07,07,09,43,21.30
2010,07,07,09,44,21.30
2010,07,07,09,45,21.30
2010,07,07,09,46,21.30
2010,07,07,09,47,21.40
2010,07,07,09,48,21.40
2010,07,07,09,49,21.40
2010,07,07,09,50,21.40
2010,07,07,09,51,21.40
2010,07,07,09,52,21.50
2010,07,07,09,53,21.60
2010,07,07,09,54,21.60
2010,07,07,09,55,21.70
2010,07,07,09,56,21.80
2010,07,07,09,57,21.80
2010,07,07,09,58,21.80
2010,07,07,09,59,21.80
2010,07,07,10,00,21.80
2010,07,07,10,01,21.80
2010,07,07,10,02,21.80
2010,07,07,10,03,21.80
2010,07,07,10,04,21.80
2010,07,07,10,05,21.70
2010,07,07,10,06,21.70
2010,07,07,10,07,21.60
2010,07,07,10,08,21.60
2010,07,07,10,09,21.50
2010,07,07,10,10,21.50
2010,07,07,10,11,21.50
2010,07,07,10,12,21.50
2010,07,07,10,13,21.60
2010,07,07,10,14,21.60
2010,07,07,10,15,21.70
2010,07,07,10,16,21.70
2010,07,07,10,17,21.70
2010,07,07,10,18,21.70
2010,07,07,10,19,21.70
2010,07,07,10,20,21.70
2010,07,07,10,21,21.70
2010,07,07,10,22,21.80
2010,07,07,10,23,21.80
2010,07,07,10,24,21.90
2010,07,07,10,25,21.90
2010,07,07,10,26,22.00
2010,07,07,10,27,22.10
2010,07,07,10,28,22.10
2010,07,07,10,29,22.00
2010,07,07,10,30,22.00
2010,07,07,10,31,22.00
2010,07,07,10,32,22.10
2010,07,07,10,33,22.10
2010,07,07,10,34,22.10
2010,07,07,10,35,22.10
2010,07,07,10,36,22.10
2010,07,07,10,37,22.10
2010,07,07,10,38,22.20
2010,07,07,10,39,22.30
2010,07,07,10,40,22.30
2010,07,07,10,41,22.30
2010,07,07,10,42,22.40
2010,07,07,10,43,22.50
2010,07,07,10,44,22.50
2010,07,07,10,45,22.60
2010,07,07,10,46,22.70
2010,07,07,10,47,22.80
2010,07,07,10,48,22.80
2010,07,07,10,49,22.80
2010,07,07,10,50,22.70
2010,07,07,10,51,22.70
2010,07,07,10,52,22.70
2010,07,07,10,53,22.70
2010,07,07,10,54,22.70
2010,07,07,10,55,22.70
2010,07,07,10,56,22.70
2010,07,07,10,57,22.80
2010,07,07,10,58,22.80
2010,07,07,10,59,22.80
2010,07,07,11,00,22.80
2010,07,07,11,01,22.70
2010,07,07,11,02,22.70
2010,07,07,11,03,22.70
2010,07,07,11,04,22.70
2010,07,07,11,05,22.70
2010,07,07,11,06,22.70
2010,07,07,11,07,22.70
2010,07,07,11,08,22.60
2010,07,07,11,09,22.60
2010,07,07,11,10,22.60
2010,07,07,11,11,22.50
2010,07,07,11,12,22.40
2010,07,07,11,13,22.40
2010,07,07,11,14,22.50
2010,07,07,11,15,22.50
2010,07,07,11,16,22.60
2010,07,07,11,17,22.60
2010,07,07,11,18,22.60
2010,07,07,11,19,22.60
2010,07,07,11,20,22.60
2010,07,07,11,21,22.70
2010,07,07,11,22,22.70
2010,07,07,11,23,22.70
2010,07,07,11,24,22.80
2010,07,07,11,25,22.90
2010,07,07,11,26,23.00
2010,07,07,11,27,23.10
2010,07,07,11,28,23.20
2010,07,07,11,29,23.20
2010,07,07,11,30,23.20
2010,07,07,11,31,23.20
2010,07,07,11,32,23.10
2010,07,07,11,33,23.10
2010,07,07,11,34,23.10
2010,07,07,11,35,23.10
2010,07,07,11,36,23.00
2010,07,07,11,37,23.00
2010,07,07,11,38,23.10
2010,07,07,11,39,23.10
2010,07,07,11,40,23.20
2010,07,07,11,41,23.30
2010,07,07,11,42,23.40
2010,07,07,11,43,23.40
2010,07,07,11,44,23.40
2010,07,07,11,45,23.50
2010,07,07,11,46,23.50
2010,07,07,11,47,23.60
2010,07,07,11,48,23.70
2010,07,07,11,49,23.80
2010,07,07,11,50,23.90
2010,07,07,11,51,24.00
2010,07,07,11,52,24.20
2010,07,07,11,53,24.30
2010,07,07,11,54,24.40
2010,07,07,11,55,24.50
2010,07,07,11,56,24.60
2010,07,07,11,57,24.70
2010,07,07,11,58,24.70
2010,07,07,11,59,24.70
2010,07,07,12,00,24.70
2010,07,07,12,01,24.60
2010,07,07,12,02,24.60
2010,07,07,12,03,24.50
2010,07,07,12,04,24.50
2010,07,07,12,05,24.40
2010,07,07,12,06,24.40
2010,07,07,12,07,24.40
2010,07,07,12,08,24.50
2010,07,07,12,09,24.60
2010,07,07,12,10,24.70
2010,07,07,12,11,24.70
2010,07,07,12,12,24.80
2010,07,07,12,13,24.90
2010,07,07,12,14,25.00
2010,07,07,12,15,25.00
2010,07,07,12,16,25.00
2010,07,07,12,17,25.00
2010,07,07,12,18,25.00
2010,07,07,12,19,25.00
2010,07,07,12,20,25.10
2010,07,07,12,21,25.10
2010,07,07,12,22,25.10
2010,07,07,12,23,25.00
2010,07,07,12,24,25.00
2010,07,07,12,25,24.90
2010,07,07,12,26,25.00
2010,07,07,12,27,25.10
2010,07,07,12,28,25.10
2010,07,07,12,29,25.20
2010,07,07,12,30,25.20
2010,07,07,12,31,25.20
2010,07,07,12,32,25.30
2010,07,07,12,33,25.40
2010,07,07,12,34,25.40
2010,07,07,12,35,25.40
2010,07,07,12,36,25.50
2010,07,07,12,37,25.60
2010,07,07,12,38,25.60
2010,07,07,12,39,25.70
2010,07,07,12,40,25.70
2010,07,07,12,41,25.70
2010,07,07,12,42,25.70
2010,07,07,12,43,25.70
2010,07,07,12,44,25.80
2010,07,07,12,45,25.90
2010,07,07,12,46,25.90
2010,07,07,12,47,25.90
2010,07,07,12,48,25.90
2010,07,07,12,49,26.00
2010,07,07,12,50,25.90
2010,07,07,12,51,25.90
2010,07,07,12,52,26.00
2010,07,07,12,53,26.00
2010,07,07,12,54,26.10
2010,07,07,12,55,26.10
2010,07,07,12,56,26.10
2010,07,07,12,57,26.00
2010,07,07,12,58,25.90
2010,07,07,12,59,25.90
2010,07,07,13,00,25.90
2010,07,07,13,01,25.90
2010,07,07,13,02,25.90
2010,07,07,13,03,26.00
2010,07,07,13,04,26.10
2010,07,07,13,05,26.20
2010,07,07,13,06,26.30
2010,07,07,13,07,26.30
2010,07,07,13,08,26.20
2010,07,07,13,09,26.20
2010,07,07,13,10,26.20
2010,07,07,13,11,26.10
2010,07,07,13,12,26.10
2010,07,07,13,13,26.10
2010,07,07,13,14,26.10
2010,07,07,13,15,26.10
2010,07,07,13,16,26.20
2010,07,07,13,17,26.30
2010,07,07,13,18,26.40
2010,07,07,13,19,26.40
2010,07,07,13,20,26.40
2010,07,07,13,21,26.50
2010,07,07,13,22,26.50
2010,07,07,13,23,26.50
2010,07,07,13,24,26.60
2010,07,07,13,25,26.70
2010,07,07,13,26,26.80
2010,07,07,13,27,26.80
2010,07,07,13,28,26.90
2010,07,07,13,29,27.00
2010,07,07,13,30,27.00
2010,07,07,13,31,27.10
2010,07,07,13,32,27.10
2010,07,07,13,33,27.10
2010,07,07,13,34,27.10
2010,07,07,13,35,27.10
2010,07,07,13,36,27.10
2010,07,07,13,37,27.10
2010,07,07,13,38,27.10
2010,07,07,13,39,27.20
2010,07,07,13,40,27.20
2010,07,07,13,41,27.20
2010,07,07,13,42,27.20
2010,07,07,13,43,27.20
2010,07,07,13,44,27.20
2010,07,07,13,45,27.20
2010,07,07,13,46,27.20
2010,07,07,13,47,27.10
2010,07,07,13,48,27.00
2010,07,07,13,49,26.90
2010,07,07,13,50,26.90
2010,07,07,13,51,26.90
2010,07,07,13,52,26.90
2010,07,07,13,53,26.90
2010,07,07,13,54,26.90
2010,07,07,13,55,26.90
2010,07,07,13,56,26.90
2010,07,07,13,57,26.90
2010,07,07,13,58,26.90
2010,07,07,13,59,26.90
2010,07,07,14,00,26.90
2010,07,07,14,01,27.00
2010,07,07,14,02,27.10
2010,07,07,14,03,27.10
2010,07,07,14,04,27.10
2010,07,07,14,05,27.20
2010,07,07,14,06,27.20
2010,07,07,14,07,27.30
2010,07,07,14,08,27.40
2010,07,07,14,09,27.40
2010,07,07,14,10,27.40
2010,07,07,14,11,27.50
2010,07,07,14,12,27.60
2010,07,07,14,13,27.70
2010,07,07,14,14,27.80
2010,07,07,14,15,27.90
2010,07,07,14,16,28.00
2010,07,07,14,17,28.10
2010,07,07,14,18,28.10
2010,07,07,14,19,28.00
2010,07,07,14,20,27.80
2010,07,07,14,21,27.70
2010,07,07,14,22,27.70
2010,07,07,14,23,27.60
2010,07,07,14,24,27.50
2010,07,07,14,25,27.50
2010,07,07,14,26,27.50
2010,07,07,14,27,27.40
2010,07,07,14,28,27.40
2010,07,07,14,29,27.40
2010,07,07,14,30,27.50
2010,07,07,14,31,27.60
2010,07,07,14,32,27.60
2010,07,07,14,33,27.70
2010,07,07,14,34,27.80
2010,07,07,14,35,27.80
2010,07,07,14,36,27.80
2010,07,07,14,37,27.80
2010,07,07,14,38,27.80
2010,07,07,14,39,27.80
2010,07,07,14,40,27.80
2010,07,07,14,41,27.90
2010,07,07,14,42,28.00
2010,07,07,14,43,28.00
2010,07,07,14,44,28.10
2010,07,07,14,45,28.10
2010,07,07,14,46,28.10
2010,07,07,14,47,28.20
2010,07,07,14,48,28.20
2010,07,07,14,49,28.10
2010,07,07,14,50,28.10
2010,07,07,14,51,28.00
2010,07,07,14,52,28.00
2010,07,07,14,53,28.00
2010,07,07,14,54,28.00
2010,07,07,14,55,28.10
2010,07,07,14,56,28.20
2010,07,07,14,57,28.30
2010,07,07,14,58,28.40
2010,07,07,14,59,28.50
2010,07,07,15,00,28.70
2010,07,07,15,01,28.80
2010,07,07,15,02,28.80
2010,07,07,15,03,28.90
2010,07,07,15,04,29.00
2010,07,07,15,05,29.20
2010,07,07,15,06,29.30
2010,07,07,15,07,29.50
2010,07,07,15,08,29.60
2010,07,07,15,09,29.50
2010,07,07,15,10,29.40
2010,07,07,15,11,29.30
2010,07,07,15,12,29.30
2010,07,07,15,13,29.40
2010,07,07,15,14,29.40
2010,07,07,15,15,29.40
2010,07,07,15,16,29.30
2010,07,07,15,17,29.30
2010,07,07,15,18,29.30
2010,07,07,15,19,29.30
2010,07,07,15,20,29.30
2010,07,07,15,21,29.30
2010,07,07,15,22,29.30
2010,07,07,15,23,29.40
2010,07,07,15,24,29.40
2010,07,07,15,25,29.40
2010,07,07,15,26,29.30
2010,07,07,15,27,29.30
2010,07,07,15,28,29.20
2010,07,07,15,29,29.10
2010,07,07,15,30,29.00
2010,07,07,15,31,28.80
2010,07,07,15,32,28.70
2010,07,07,15,33,28.50
2010,07,07,15,34,28.30
2010,07,07,15,35,28.10
2010,07,07,15,36,28.00
2010,07,07,15,37,27.90
2010,07,07,15,38,27.80
2010,07,07,15,39,27.80
2010,07,07,15,40,27.80
2010,07,07,15,41,27.60
2010,07,07,15,42,27.50
2010,07,07,15,43,27.50
2010,07,07,15,44,27.40
2010,07,07,15,45,27.40
2010,07,07,15,46,27.40
2010,07,07,15,47,27.40
2010,07,07,15,48,27.40
2010,07,07,15,49,27.40
2010,07,07,15,50,27.40
2010,07,07,15,51,27.50
2010,07,07,15,52,27.60
2010,07,07,15,53,27.70
2010,07,07,15,54,27.80
2010,07,07,15,55,27.80
2010,07,07,15,56,27.80
2010,07,07,15,57,27.70
2010,07,07,15,58,27.60
2010,07,07,15,59,27.60
2010,07,07,16,00,27.50
2010,07,07,16,01,27.50
2010,07,07,16,02,27.40
2010,07,07,16,03,27.30
2010,07,07,16,04,27.30
2010,07,07,16,05,27.20
2010,07,07,16,06,27.20
2010,07,07,16,07,27.20
2010,07,07,16,08,27.10
2010,07,07,16,09,27.20
2010,07,07,16,10,27.30
2010,07,07,16,11,27.40
2010,07,07,16,12,27.40
2010,07,07,16,13,27.50
2010,07,07,16,14,27.60
2010,07,07,16,15,27.60
2010,07,07,16,16,27.60
2010,07,07,16,17,27.70
2010,07,07,16,18,27.80
2010,07,07,16,19,27.80
2010,07,07,16,20,27.80
2010,07,07,16,21,27.90
2010,07,07,16,22,28.00
2010,07,07,16,23,28.20
2010,07,07,16,24,28.30
2010,07,07,16,25,28.50
2010,07,07,16,26,28.70
2010,07,07,16,27,28.80
2010,07,07,16,28,28.90
2010,07,07,16,29,29.00
2010,07,07,16,30,29.10
2010,07,07,16,31,29.30
2010,07,07,16,32,29.40
2010,07,07,16,33,29.40
2010,07,07,16,34,29.40
2010,07,07,16,35,29.40
2010,07,07,16,36,29.40
2010,07,07,16,37,29.40
2010,07,07,16,38,29.40
2010,07,07,16,39,29.30
2010,07,07,16,40,29.30
2010,07,07,16,41,29.30
2010,07,07,16,42,29.40
2010,07,07,16,43,29.40
2010,07,07,16,44,29.50
2010,07,07,16,45,29.60
2010,07,07,16,46,29.60
2010,07,07,16,47,29.70
2010,07,07,16,48,29.70
2010,07,07,16,49,29.70
2010,07,07,16,50,29.80
2010,07,07,16,51,29.80
2010,07,07,16,52,29.70
2010,07,07,16,53,29.70
2010,07,07,16,54,29.60
2010,07,07,16,55,29.50
2010,07,07,16,56,29.50
2010,07,07,16,57,29.40
2010,07,07,16,58,29.40
2010,07,07,16,59,29.30
2010,07,07,17,00,29.30
2010,07,07,17,01,29.20
2010,07,07,17,02,29.10
2010,07,07,17,03,29.10
2010,07,07,17,04,29.10
2010,07,07,17,05,29.20
2010,07,07,17,06,29.20
2010,07,07,17,07,29.20
2010,07,07,17,08,29.30
2010,07,07,17,09,29.30
2010,07,07,17,10,29.40
2010,07,07,17,11,29.60
2010,07,07,17,12,29.70
2010,07,07,17,13,29.80
2010,07,07,17,14,29.80
2010,07,07,17,15,29.80
2010,07,07,17,16,29.80
2010,07,07,17,17,29.70
2010,07,07,17,18,29.70
2010,07,07,17,19,29.70